When you browse on this site, cookies collect data to enhance your experience and personalize the content and advertising you see.
Visit our Privacy Policy to learn more. By continuing to use the site, you agree to this use of cookies and data.
  • In United Kingdom
  • List of Countries
  • For 7 days
  • Water Temperature
  • Satellite Maps
  • Weather Map
  • Weather Widgets
  • user-avatar
    Login

    Hourly Weather Dhaka

    Today, 22 May, Wednesday

    Time Temperature Precipitation Wind Pressure Humidity
    00:00 +33°C° 0 mm 4 mps 753 mmHg 71%
    01:00 +33°C° 0 mm 3 mps 753 mmHg 74%
    02:00 +31°C° 0 mm 3 mps 753 mmHg 77%
    03:00 +31°C° 0 mm 3 mps 753 mmHg 80%
    04:00 +30°C° 0 mm 3 mps 753 mmHg 81%
    05:00 +30°C° 0 mm 3 mps 753 mmHg 83%
    06:00 +30°C° 0 mm 3 mps 753 mmHg 84%
    07:00 +33°C° 0 mm 3 mps 753 mmHg 78%
    08:00 +34°C° 0 mm 3 mps 753 mmHg 71%
    09:00 +35°C° 0 mm 4 mps 754 mmHg 65%
    10:00 +37°C° 0 mm 4 mps 753 mmHg 58%
    11:00 +40°C° 0 mm 4 mps 753 mmHg 50%
    12:00 +41°C° 0 mm 4 mps 753 mmHg 43%
    13:00 +42°C° 0 mm 4 mps 752 mmHg 40%
    14:00 +43°C° 0 mm 4 mps 751 mmHg 37%
    15:00 +44°C° 0 mm 4 mps 750 mmHg 35%
    16:00 +42°C° 0 mm 5 mps 750 mmHg 40%
    17:00 +41°C° 0 mm 6 mps 750 mmHg 46%
    18:00 +39°C° 0 mm 7 mps 749 mmHg 51%
    19:00 +38°C° 0 mm 6 mps 750 mmHg 55%
    20:00 +36°C° 0 mm 6 mps 750 mmHg 59%
    21:00 +35°C° 0 mm 6 mps 751 mmHg 63%
    22:00 +34°C° 0 mm 6 mps 751 mmHg 67%
    23:00 +34°C° 0 mm 6 mps 751 mmHg 71%

    Tomorrow, 23 May, Thursday

    Time Temperature Precipitation Wind Pressure Humidity
    00:00 +33°C° 0 mm 5 mps 752 mmHg 75%
    01:00 +33°C° 0 mm 5 mps 752 mmHg 76%
    02:00 +32°C° 0 mm 4 mps 751 mmHg 77%
    03:00 +32°C° 0 mm 4 mps 751 mmHg 78%
    04:00 +32°C° 0 mm 4 mps 751 mmHg 78%
    05:00 +32°C° 0 mm 5 mps 752 mmHg 79%
    06:00 +32°C° 0 mm 5 mps 752 mmHg 79%
    07:00 +33°C° 0 mm 6 mps 752 mmHg 74%
    08:00 +34°C° 0 mm 6 mps 753 mmHg 69%
    09:00 +35°C° 0 mm 6 mps 753 mmHg 64%
    10:00 +38°C° 0 mm 6 mps 753 mmHg 57%
    11:00 +40°C° 0 mm 6 mps 752 mmHg 50%
    12:00 +42°C° 0 mm 6 mps 752 mmHg 44%
    13:00 +44°C° 0 mm 6 mps 751 mmHg 41%
    14:00 +44°C° 0 mm 6 mps 750 mmHg 37%
    15:00 +45°C° 0 mm 6 mps 749 mmHg 34%
    16:00 +44°C° 0 mm 7 mps 749 mmHg 38%
    17:00 +41°C° 0 mm 7 mps 748 mmHg 42%
    18:00 +40°C° 0 mm 8 mps 748 mmHg 46%
    19:00 +38°C° 4.1 mm 8 mps 749 mmHg 54%
    20:00 +35°C° 4.1 mm 7 mps 750 mmHg 63%
    21:00 +33°C° 4.1 mm 7 mps 751 mmHg 72%
    22:00 +33°C° 0 mm 7 mps 751 mmHg 72%
    23:00 +33°C° 0 mm 7 mps 751 mmHg 72%

    Day after tomorrow, 24 May, Friday

    Time Temperature Precipitation Wind Pressure Humidity
    00:00 +32°C° 0 mm 7 mps 751 mmHg 72%
    01:00 +32°C° 0.8 mm 6 mps 751 mmHg 72%
    02:00 +32°C° 0.8 mm 5 mps 751 mmHg 73%
    03:00 +30°C° 0.8 mm 5 mps 750 mmHg 73%
    04:00 +30°C° 0 mm 6 mps 751 mmHg 75%
    05:00 +30°C° 0 mm 7 mps 751 mmHg 77%
    06:00 +32°C° 0 mm 8 mps 751 mmHg 79%
    07:00 +33°C° 0 mm 7 mps 751 mmHg 75%
    08:00 +34°C° 0 mm 7 mps 752 mmHg 70%
    09:00 +35°C° 0 mm 6 mps 752 mmHg 66%
    10:00 +36°C° 0 mm 6 mps 752 mmHg 62%
    11:00 +38°C° 0 mm 6 mps 752 mmHg 58%
    12:00 +38°C° 0 mm 6 mps 752 mmHg 55%
    13:00 +39°C° 0 mm 6 mps 751 mmHg 55%
    14:00 +39°C° 0 mm 5 mps 751 mmHg 55%
    15:00 +39°C° 0 mm 5 mps 750 mmHg 54%
    16:00 +37°C° 0.6 mm 5 mps 750 mmHg 56%
    17:00 +38°C° 0.6 mm 6 mps 749 mmHg 58%
    18:00 +36°C° 0.6 mm 6 mps 749 mmHg 60%
    19:00 +35°C° 0.4 mm 6 mps 749 mmHg 64%
    20:00 +34°C° 0.4 mm 6 mps 750 mmHg 68%
    21:00 +33°C° 0.4 mm 6 mps 750 mmHg 72%
    22:00 +33°C° 0 mm 6 mps 750 mmHg 73%
    23:00 +33°C° 0 mm 6 mps 750 mmHg 75%

    25 May, Saturday

    Time Temperature Precipitation Wind Pressure Humidity
    00:00 +32°C° 0 mm 5 mps 750 mmHg 77%
    01:00 +32°C° 0 mm 5 mps 750 mmHg 77%
    02:00 +32°C° 0 mm 5 mps 750 mmHg 78%
    03:00 +32°C° 0 mm 6 mps 749 mmHg 78%
    04:00 +32°C° 0.1 mm 5 mps 749 mmHg 78%
    05:00 +32°C° 0.1 mm 5 mps 749 mmHg 79%
    06:00 +32°C° 0.1 mm 5 mps 749 mmHg 79%
    07:00 +33°C° 0.1 mm 5 mps 750 mmHg 77%
    08:00 +33°C° 0.1 mm 5 mps 750 mmHg 75%
    09:00 +34°C° 0.1 mm 5 mps 751 mmHg 74%
    10:00 +34°C° 0.1 mm 6 mps 750 mmHg 71%
    11:00 +35°C° 0.1 mm 6 mps 750 mmHg 69%
    12:00 +36°C° 0.1 mm 6 mps 750 mmHg 66%
    13:00 +36°C° 0 mm 6 mps 749 mmHg 65%
    14:00 +38°C° 0 mm 7 mps 749 mmHg 63%
    15:00 +38°C° 0 mm 7 mps 748 mmHg 61%
    16:00 +38°C° 0 mm 7 mps 748 mmHg 63%
    17:00 +36°C° 0 mm 7 mps 747 mmHg 65%
    18:00 +36°C° 0 mm 7 mps 747 mmHg 67%
    19:00 +35°C° 0.3 mm 7 mps 748 mmHg 70%
    20:00 +34°C° 0.3 mm 6 mps 749 mmHg 74%
    21:00 +33°C° 0.3 mm 6 mps 749 mmHg 77%
    22:00 +33°C° 0 mm 6 mps 749 mmHg 79%
    23:00 +32°C° 0 mm 5 mps 749 mmHg 80%

    26 May, Sunday

    Time Temperature Precipitation Wind Pressure Humidity
    00:00 +32°C° 0 mm 5 mps 750 mmHg 81%
    01:00 +32°C° 0 mm 4 mps 749 mmHg 81%
    02:00 +32°C° 0 mm 4 mps 749 mmHg 81%
    03:00 +31°C° 0 mm 3 mps 749 mmHg 80%
    04:00 +32°C° 0 mm 4 mps 749 mmHg 80%
    05:00 +32°C° 0 mm 5 mps 749 mmHg 80%
    06:00 +32°C° 0 mm 6 mps 750 mmHg 80%
    07:00 +34°C° 0 mm 5 mps 750 mmHg 74%
    08:00 +35°C° 0 mm 5 mps 751 mmHg 69%
    09:00 +36°C° 0 mm 5 mps 751 mmHg 64%
    10:00 +37°C° 0 mm 5 mps 751 mmHg 61%
    11:00 +39°C° 0 mm 5 mps 751 mmHg 57%
    12:00 +40°C° 0 mm 5 mps 750 mmHg 54%
    13:00 +40°C° 0 mm 5 mps 750 mmHg 51%
    14:00 +41°C° 0 mm 5 mps 749 mmHg 48%
    15:00 +42°C° 0 mm 5 mps 748 mmHg 46%
    16:00 +41°C° 0.1 mm 6 mps 748 mmHg 50%
    17:00 +39°C° 0.1 mm 7 mps 747 mmHg 55%
    18:00 +38°C° 0.1 mm 8 mps 747 mmHg 60%
    19:00 +36°C° 1.3 mm 7 mps 748 mmHg 65%
    20:00 +35°C° 1.3 mm 6 mps 750 mmHg 70%
    21:00 +34°C° 1.3 mm 6 mps 751 mmHg 75%
    22:00 +33°C° 0 mm 5 mps 751 mmHg 76%
    23:00 +33°C° 0 mm 5 mps 750 mmHg 77%

    27 May, Monday

    Time Temperature Precipitation Wind Pressure Humidity
    00:00 +33°C° 0 mm 4 mps 750 mmHg 78%
    01:00 +33°C° 0 mm 4 mps 750 mmHg 80%
    02:00 +31°C° 0 mm 3 mps 750 mmHg 81%
    03:00 +31°C° 0 mm 3 mps 750 mmHg 83%
    04:00 +31°C° 0.1 mm 3 mps 750 mmHg 83%
    05:00 +31°C° 0.1 mm 3 mps 751 mmHg 83%
    06:00 +31°C° 0.1 mm 3 mps 751 mmHg 83%
    07:00 +34°C° 0 mm 4 mps 751 mmHg 75%
    08:00 +35°C° 0 mm 4 mps 752 mmHg 68%
    09:00 +37°C° 0 mm 4 mps 752 mmHg 60%
    10:00 +38°C° 0 mm 4 mps 752 mmHg 57%
    11:00 +40°C° 0 mm 4 mps 751 mmHg 53%
    12:00 +41°C° 0 mm 5 mps 751 mmHg 50%
    13:00 +41°C° 0 mm 4 mps 750 mmHg 47%
    14:00 +42°C° 0 mm 3 mps 750 mmHg 44%
    15:00 +42°C° 0 mm 3 mps 749 mmHg 42%
    16:00 +40°C° 0 mm 3 mps 749 mmHg 46%
    17:00 +41°C° 0 mm 4 mps 749 mmHg 50%
    18:00 +40°C° 0 mm 5 mps 749 mmHg 53%
    19:00 +37°C° 0 mm 5 mps 749 mmHg 58%
    20:00 +36°C° 0 mm 5 mps 750 mmHg 62%
    21:00 +35°C° 0 mm 6 mps 750 mmHg 66%
    22:00 +34°C° 0.5 mm 5 mps 750 mmHg 70%
    23:00 +34°C° 0.5 mm 4 mps 750 mmHg 73%
    Show more